�������l�o���
Date,Time,MP-1(��Sv/h),MP-2(��Sv/h),MP-3(��Sv/h),MP-4(��Sv/h),MP-5(��Sv/h),MP-6(��Sv/h),MP-7(��Sv/h),MP-8(��Sv/h),����,����(m/s),���J
2022/07/30,00:00,0.595,0.840,0.533,0.997,0.713,0.339,0.585,0.553,�k,1.1,��
2022/07/30,00:10,0.595,0.838,0.532,0.997,0.714,0.340,0.585,0.555,�k,1.1,��
2022/07/30,00:20,0.594,0.838,0.532,0.997,0.714,0.340,0.586,0.554,�k�k��,1.5,��
2022/07/30,00:30,0.595,0.839,0.532,0.997,0.715,0.339,0.584,0.556,�k,1.5,��
2022/07/30,00:40,0.592,0.839,0.533,0.996,0.715,0.339,0.585,0.554,�k,1.4,��
2022/07/30,00:50,0.594,0.838,0.534,0.996,0.715,0.339,0.584,0.554,�k,1.2,��
2022/07/30,01:00,0.594,0.838,0.532,0.998,0.714,0.340,0.587,0.553,�k�k��,0.8,��
2022/07/30,01:10,0.593,0.838,0.533,0.996,0.714,0.339,0.586,0.554,�k�k��,1.4,��
2022/07/30,01:20,0.595,0.839,0.532,0.997,0.714,0.340,0.586,0.554,�k�k��,1.2,��
2022/07/30,01:30,0.594,0.836,0.534,0.996,0.715,0.338,0.587,0.553,�k,1.4,��
2022/07/30,01:40,0.594,0.837,0.533,0.997,0.714,0.340,0.587,0.555,�k,1.7,��
2022/07/30,01:50,0.594,0.838,0.533,0.996,0.715,0.339,0.587,0.554,�k�k��,1.9,��
2022/07/30,02:00,0.593,0.838,0.532,0.999,0.713,0.338,0.587,0.554,�k,1.7,��
2022/07/30,02:10,0.592,0.839,0.534,0.995,0.713,0.338,0.587,0.552,�k,1.7,��
2022/07/30,02:20,0.593,0.838,0.532,0.996,0.714,0.338,0.587,0.553,�k�k��,1.7,��
2022/07/30,02:30,0.594,0.837,0.531,0.997,0.714,0.340,0.586,0.554,�k�k��,2.2,��
2022/07/30,02:40,0.593,0.838,0.533,0.998,0.713,0.337,0.587,0.556,�k,2.5,��
2022/07/30,02:50,0.593,0.837,0.532,0.996,0.713,0.338,0.586,0.554,�k,2.5,��
2022/07/30,03:00,0.595,0.838,0.532,0.996,0.715,0.341,0.587,0.554,�k,2.6,��
2022/07/30,03:10,0.593,0.839,0.531,0.996,0.713,0.339,0.587,0.555,�k,2.0,��
2022/07/30,03:20,0.592,0.839,0.532,0.996,0.714,0.338,0.587,0.554,�k,1.4,��
2022/07/30,03:30,0.593,0.838,0.533,0.999,0.714,0.338,0.586,0.554,�k,1.4,��
2022/07/30,03:40,0.594,0.838,0.532,0.996,0.715,0.338,0.586,0.555,�k,1.7,��
2022/07/30,03:50,0.592,0.837,0.531,0.998,0.715,0.339,0.589,0.552,�k,2.0,��
2022/07/30,04:00,0.594,0.837,0.532,0.996,0.714,0.339,0.587,0.554,�k�k��,2.3,��
2022/07/30,04:10,0.594,0.837,0.532,0.996,0.715,0.339,0.587,0.555,�k�k��,2.6,��
2022/07/30,04:20,0.592,0.838,0.531,0.997,0.715,0.338,0.587,0.554,�k�k��,3.2,��
2022/07/30,04:30,0.593,0.835,0.531,0.996,0.714,0.337,0.585,0.551,�k�k��,2.5,��
2022/07/30,04:40,0.593,0.837,0.533,0.996,0.714,0.339,0.588,0.554,�k�k��,2.6,��
2022/07/30,04:50,0.592,0.838,0.532,0.998,0.714,0.341,0.587,0.554,�k�k��,2.2,��
2022/07/30,05:00,0.591,0.838,0.531,0.994,0.714,0.338,0.588,0.554,�k��,1.7,��
2022/07/30,05:10,0.593,0.837,0.533,0.996,0.715,0.339,0.587,0.553,�k�k��,1.5,��
2022/07/30,05:20,0.594,0.835,0.532,0.997,0.715,0.340,0.586,0.555,�k�k��,1.5,��
2022/07/30,05:30,0.593,0.838,0.535,0.996,0.714,0.339,0.587,0.554,�k��,1.7,��
2022/07/30,05:40,0.593,0.839,0.532,0.998,0.713,0.339,0.587,0.554,�k�k��,1.2,��
2022/07/30,05:50,0.594,0.837,0.534,0.998,0.714,0.338,0.587,0.553,�k�k��,1.1,��
2022/07/30,06:00,0.594,0.837,0.533,0.997,0.714,0.339,0.586,0.555,���k��,0.6,��
2022/07/30,06:10,0.592,0.838,0.534,0.997,0.715,0.340,0.588,0.553,-,CALM,�L
2022/07/30,06:20,0.593,0.839,0.532,0.997,0.712,0.339,0.587,0.554,��,0.6,��
2022/07/30,06:30,0.594,0.837,0.532,0.998,0.711,0.339,0.587,0.554,-,CALM,��
2022/07/30,06:40,0.593,0.837,0.532,0.995,0.714,0.340,0.587,0.554,-,CALM,��
2022/07/30,06:50,0.595,0.836,0.533,0.997,0.714,0.339,0.586,0.554,�쓌,0.9,��
2022/07/30,07:00,0.593,0.839,0.531,0.996,0.713,0.340,0.586,0.555,���쓌,0.6,��
2022/07/30,07:10,0.593,0.838,0.532,0.997,0.714,0.339,0.587,0.554,-,CALM,��
2022/07/30,07:20,0.593,0.837,0.531,0.996,0.713,0.340,0.586,0.555,��,1.1,��
2022/07/30,07:30,0.594,0.840,0.532,0.994,0.712,0.338,0.585,0.554,���k��,1.1,��
2022/07/30,07:40,0.593,0.837,0.532,0.996,0.715,0.338,0.587,0.555,���쓌,1.2,��
2022/07/30,07:50,0.593,0.837,0.531,0.998,0.714,0.339,0.587,0.554,���쓌,0.8,��
2022/07/30,08:00,0.595,0.836,0.532,0.995,0.714,0.338,0.588,0.554,-,CALM,��
2022/07/30,08:10,0.594,0.837,0.531,0.997,0.715,0.338,0.587,0.554,���쓌,1.2,�L
2022/07/30,08:20,0.592,0.838,0.532,0.996,0.712,0.337,0.587,0.553,��,0.9,��
2022/07/30,08:30,0.596,0.837,0.532,0.997,0.714,0.340,0.588,0.554,���쓌,1.4,��
2022/07/30,08:40,0.593,0.838,0.530,0.997,0.714,0.337,0.587,0.554,���쓌,1.9,��
2022/07/30,08:50,0.593,0.834,0.533,0.999,0.714,0.339,0.588,0.553,���쓌,1.4,��
2022/07/30,09:00,0.593,0.837,0.531,0.997,0.715,0.340,0.584,0.553,���쓌,1.9,��
2022/07/30,09:10,0.596,0.836,0.531,0.997,0.714,0.339,0.587,0.554,���쓌,1.7,��
2022/07/30,09:20,0.594,0.837,0.532,0.998,0.714,0.340,0.588,0.554,�쓌,1.7,��
2022/07/30,09:30,0.594,0.838,0.533,0.999,0.714,0.339,0.586,0.555,���쓌,1.2,��
2022/07/30,09:40,0.595,0.836,0.533,0.997,0.713,0.340,0.588,0.553,���k��,0.9,��
2022/07/30,09:50,0.595,0.838,0.531,0.998,0.715,0.339,0.586,0.554,��,1.5,��
2022/07/30,10:00,0.596,0.837,0.533,0.998,0.717,0.339,0.588,0.554,���쓌,1.1,��
2022/07/30,10:10,0.595,0.837,0.532,0.997,0.714,0.338,0.587,0.552,��,2.0,��
2022/07/30,10:20,0.594,0.836,0.533,0.999,0.713,0.339,0.588,0.552,��,1.4,��
2022/07/30,10:30,0.595,0.837,0.532,0.997,0.715,0.338,0.585,0.552,�쓌,2.2,��
2022/07/30,10:40,0.595,0.836,0.533,0.998,0.715,0.337,0.584,0.552,��,1.9,��
2022/07/30,10:50,0.595,0.835,0.531,0.995,0.714,0.339,0.585,0.552,��,1.9,��
2022/07/30,11:00,0.597,0.837,0.531,0.995,0.715,0.338,0.586,0.552,��,2.0,��
2022/07/30,11:10,0.595,0.836,0.532,0.995,0.714,0.337,0.587,0.550,��,2.0,��
2022/07/30,11:20,0.596,0.835,0.530,1.000,0.714,0.338,0.587,0.552,���쓌,1.4,��
2022/07/30,11:30,0.593,0.836,0.529,0.998,0.713,0.339,0.587,0.553,��,1.7,��
2022/07/30,11:40,0.597,0.836,0.531,0.998,0.713,0.337,0.586,0.552,��,1.7,��
2022/07/30,11:50,0.597,0.837,0.532,0.998,0.715,0.338,0.586,0.553,���쓌,1.7,��
2022/07/30,12:00,0.595,0.839,0.534,1.000,0.715,0.338,0.586,0.552,�쓌,2.5,��
2022/07/30,12:10,0.596,0.838,0.534,0.999,0.714,0.339,0.586,0.553,��,2.0,��
2022/07/30,12:20,0.598,0.836,0.532,0.998,0.715,0.339,0.588,0.553,��쓌,2.0,��
2022/07/30,12:30,0.595,0.837,0.534,1.000,0.715,0.339,0.588,0.552,���쓌,1.2,��
2022/07/30,12:40,0.596,0.839,0.533,0.999,0.717,0.340,0.586,0.553,�쓌,1.9,��
2022/07/30,12:50,0.597,0.840,0.533,0.999,0.717,0.338,0.588,0.552,�쓌,1.5,��
2022/07/30,13:00,0.597,0.839,0.535,1.000,0.716,0.340,0.589,0.554,�쓌,2.6,��
2022/07/30,13:10,0.597,0.838,0.532,0.999,0.716,0.339,0.588,0.554,�쓌,2.3,��
2022/07/30,13:20,0.599,0.838,0.533,0.998,0.714,0.339,0.589,0.553,��쓌,2.0,��
2022/07/30,13:30,0.597,0.842,0.533,1.000,0.715,0.340,0.589,0.555,�쓌,2.6,��
2022/07/30,13:40,0.599,0.837,0.535,0.999,0.717,0.339,0.591,0.554,���쓌,2.0,��
2022/07/30,13:50,0.597,0.840,0.533,1.001,0.718,0.339,0.588,0.554,�쓌,2.2,��
2022/07/30,14:00,0.597,0.838,0.533,1.000,0.716,0.340,0.589,0.554,���쓌,2.3,��
2022/07/30,14:10,0.598,0.841,0.533,1.000,0.716,0.339,0.590,0.555,�쓌,2.9,��
2022/07/30,14:20,0.597,0.842,0.534,0.998,0.716,0.340,0.588,0.554,�쓌,2.3,��
2022/07/30,14:30,0.597,0.838,0.534,0.999,0.717,0.339,0.589,0.554,���쓌,2.5,��
2022/07/30,14:40,0.598,0.839,0.534,0.997,0.717,0.340,0.591,0.554,�쓌,2.9,��
2022/07/30,14:50,0.597,0.840,0.534,1.002,0.716,0.338,0.588,0.555,�쓌,2.6,��
2022/07/30,15:00,0.599,0.841,0.533,0.999,0.718,0.340,0.587,0.555,�쓌,2.8,��
2022/07/30,15:10,0.598,0.840,0.534,0.998,0.719,0.341,0.590,0.555,�쓌,3.2,��
2022/07/30,15:20,0.598,0.841,0.535,0.997,0.720,0.341,0.588,0.554,�쓌,3.2,��
2022/07/30,15:30,0.600,0.840,0.533,0.999,0.718,0.340,0.589,0.556,��쓌,3.7,��
2022/07/30,15:40,0.600,0.841,0.535,0.999,0.720,0.341,0.588,0.553,��쓌,3.2,��
2022/07/30,15:50,0.597,0.840,0.534,1.001,0.718,0.340,0.589,0.554,��쓌,3.2,��
2022/07/30,16:00,0.598,0.841,0.533,1.001,0.719,0.340,0.587,0.555,��쓌,2.6,��
2022/07/30,16:10,0.599,0.844,0.535,1.001,0.720,0.340,0.587,0.553,��쓌,3.6,��
2022/07/30,16:20,0.599,0.841,0.535,1.000,0.718,0.339,0.589,0.555,��쓌,3.6,��
2022/07/30,16:30,0.599,0.843,0.534,1.001,0.721,0.340,0.589,0.555,��쓌,4.3,��
2022/07/30,16:40,0.598,0.840,0.537,1.002,0.718,0.339,0.587,0.556,��쓌,4.8,��
2022/07/30,16:50,0.599,0.842,0.534,1.002,0.720,0.339,0.588,0.554,��쓌,4.3,��
2022/07/30,17:00,0.597,0.843,0.533,1.001,0.716,0.341,0.588,0.555,��쓌,4.3,��
2022/07/30,17:10,0.599,0.842,0.534,1.001,0.719,0.341,0.587,0.555,��쓌,5.1,��
2022/07/30,17:20,0.598,0.842,0.534,1.000,0.718,0.341,0.587,0.555,��쓌,3.7,��
2022/07/30,17:30,0.598,0.841,0.534,1.004,0.717,0.341,0.586,0.554,��쓌,5.1,��
2022/07/30,17:40,0.598,0.840,0.533,1.003,0.718,0.340,0.588,0.554,��쓌,4.9,��
2022/07/30,17:50,0.598,0.840,0.535,1.003,0.717,0.340,0.587,0.555,��쓌,3.7,��
2022/07/30,18:00,0.598,0.841,0.534,1.003,0.719,0.342,0.586,0.554,��쓌,4.6,��
2022/07/30,18:10,0.599,0.840,0.534,1.003,0.717,0.339,0.587,0.555,��쓌,4.3,��
2022/07/30,18:20,0.599,0.839,0.535,1.004,0.718,0.340,0.587,0.555,��,3.9,��
2022/07/30,18:30,0.598,0.841,0.535,1.001,0.718,0.340,0.588,0.555,��,3.2,��
2022/07/30,18:40,0.597,0.843,0.534,1.001,0.720,0.340,0.587,0.555,��쓌,3.4,��
2022/07/30,18:50,0.599,0.841,0.533,1.003,0.720,0.342,0.587,0.556,��,3.5,��
2022/07/30,19:00,0.598,0.844,0.534,1.001,0.720,0.342,0.585,0.554,��,3.0,��
2022/07/30,19:10,0.597,0.843,0.536,1.003,0.719,0.341,0.586,0.554,��쓌,2.5,��
2022/07/30,19:20,0.597,0.845,0.534,1.002,0.718,0.342,0.587,0.555,��쓌,2.8,��
2022/07/30,19:30,0.598,0.844,0.535,1.005,0.721,0.340,0.587,0.553,��쓌,3.2,��
2022/07/30,19:40,0.598,0.845,0.535,1.006,0.720,0.341,0.585,0.553,��쓌,2.6,��
2022/07/30,19:50,0.599,0.842,0.535,1.005,0.719,0.341,0.587,0.555,��,2.8,��
2022/07/30,20:00,0.599,0.843,0.536,1.006,0.719,0.342,0.587,0.555,��쓌,3.2,��
2022/07/30,20:10,0.599,0.843,0.537,1.005,0.721,0.340,0.587,0.554,��,2.6,��
2022/07/30,20:20,0.599,0.842,0.536,1.002,0.721,0.340,0.587,0.555,��,2.9,��
2022/07/30,20:30,0.596,0.842,0.536,1.003,0.721,0.341,0.587,0.556,��쓌,2.6,��
2022/07/30,20:40,0.598,0.844,0.535,1.006,0.719,0.341,0.588,0.554,��,2.9,��
2022/07/30,20:50,0.598,0.843,0.536,1.004,0.719,0.340,0.587,0.557,��,2.8,��
2022/07/30,21:00,0.596,0.844,0.535,1.005,0.721,0.341,0.586,0.557,��,2.6,��
2022/07/30,21:10,0.597,0.843,0.536,1.006,0.721,0.341,0.589,0.556,��,3.3,��
2022/07/30,21:20,0.598,0.844,0.535,1.005,0.720,0.341,0.588,0.556,��쓌,2.6,��
2022/07/30,21:30,0.598,0.843,0.535,1.004,0.720,0.340,0.589,0.555,��,3.8,��
2022/07/30,21:40,0.597,0.842,0.535,1.002,0.718,0.341,0.588,0.555,��,2.1,��
2022/07/30,21:50,0.598,0.844,0.537,1.004,0.721,0.340,0.589,0.556,��,2.0,��
2022/07/30,22:00,0.597,0.843,0.537,1.005,0.720,0.340,0.588,0.556,��,2.6,��
2022/07/30,22:10,0.599,0.842,0.537,1.006,0.719,0.340,0.589,0.556,��,1.9,��
2022/07/30,22:20,0.597,0.841,0.535,1.005,0.719,0.341,0.589,0.556,��쐼,1.7,��
2022/07/30,22:30,0.599,0.844,0.536,1.004,0.719,0.342,0.587,0.555,��,2.3,��
2022/07/30,22:40,0.599,0.844,0.535,1.006,0.717,0.341,0.588,0.555,��쐼,2.5,��
2022/07/30,22:50,0.596,0.843,0.535,1.005,0.720,0.341,0.587,0.556,��쐼,2.3,��
2022/07/30,23:00,0.598,0.844,0.536,1.006,0.719,0.341,0.588,0.555,��쐼,2.3,��
2022/07/30,23:10,0.597,0.845,0.537,1.005,0.720,0.340,0.588,0.556,��쐼,1.4,��
2022/07/30,23:20,0.600,0.843,0.537,1.004,0.722,0.342,0.588,0.556,��쐼,1.4,��
2022/07/30,23:30,0.599,0.845,0.536,1.006,0.721,0.342,0.588,0.556,�쐼,1.5,��
2022/07/30,23:40,0.599,0.845,0.535,1.007,0.719,0.341,0.587,0.557,�쐼,1.2,��
2022/07/30,23:50,0.599,0.844,0.537,1.009,0.719,0.342,0.589,0.555,���쐼,0.9,��
